When you browse on this site, cookies collect data to enhance your experience and personalize the content and advertising you see.
Visit our Privacy Policy to learn more. By continuing to use the site, you agree to this use of cookies and data.
  • en France
  • Liste des pays
  • À 7 jours
  • Température de l'eau
  • Carte satellitaire
  • Carte météo
  • Widgets météo
  • user-avatar
    Se connecter

    Météo par heure à Abzac

    Ce jour, 21 Mars, Jeudi

    Heure Température Précipitation Vent Pression Humidité
    00:00 +6°C° 0 mm 2 m/s 771 mmHg 82%
    01:00 +6°C° 0 mm 2 m/s 771 mmHg 83%
    02:00 +5°C° 0 mm 2 m/s 771 mmHg 83%
    03:00 +5°C° 0 mm 2 m/s 771 mmHg 84%
    04:00 +4°C° 0 mm 2 m/s 771 mmHg 84%
    05:00 +4°C° 0 mm 2 m/s 771 mmHg 84%
    06:00 +4°C° 0 mm 2 m/s 771 mmHg 85%
    07:00 +6°C° 0 mm 2 m/s 771 mmHg 77%
    08:00 +8°C° 0 mm 2 m/s 771 mmHg 69%
    09:00 +10°C° 0 mm 2 m/s 771 mmHg 60%
    10:00 +13°C° 0 mm 2 m/s 770 mmHg 54%
    11:00 +15°C° 0 mm 2 m/s 770 mmHg 48%
    12:00 +17°C° 0 mm 3 m/s 770 mmHg 42%
    13:00 +17°C° 0 mm 2 m/s 770 mmHg 41%
    14:00 +17°C° 0 mm 2 m/s 769 mmHg 41%
    15:00 +18°C° 0 mm 2 m/s 769 mmHg 40%
    16:00 +16°C° 0 mm 2 m/s 769 mmHg 48%
    17:00 +14°C° 0 mm 1 m/s 768 mmHg 55%
    18:00 +13°C° 0 mm 1 m/s 768 mmHg 62%
    19:00 +11°C° 0 mm 1 m/s 769 mmHg 65%
    20:00 +10°C° 0 mm 1 m/s 769 mmHg 69%
    21:00 +9°C° 0 mm 1 m/s 769 mmHg 72%
    22:00 +8°C° 0 mm 1 m/s 769 mmHg 73%
    23:00 +8°C° 0 mm 1 m/s 769 mmHg 74%

    Demain, 22 Mars, Vendredi

    Heure Température Précipitation Vent Pression Humidité
    00:00 +8°C° 0 mm 1 m/s 769 mmHg 75%
    01:00 +7°C° 0 mm 1 m/s 769 mmHg 75%
    02:00 +7°C° 0 mm 1 m/s 769 mmHg 74%
    03:00 +7°C° 0 mm 1 m/s 769 mmHg 74%
    04:00 +6°C° 0 mm 1 m/s 769 mmHg 75%
    05:00 +6°C° 0 mm 1 m/s 769 mmHg 75%
    06:00 +6°C° 0 mm 1 m/s 769 mmHg 76%
    07:00 +8°C° 0 mm 1 m/s 769 mmHg 70%
    08:00 +10°C° 0 mm 1 m/s 769 mmHg 64%
    09:00 +12°C° 0 mm 2 m/s 769 mmHg 58%
    10:00 +14°C° 0 mm 2 m/s 769 mmHg 53%
    11:00 +16°C° 0 mm 2 m/s 769 mmHg 48%
    12:00 +18°C° 0 mm 2 m/s 769 mmHg 42%
    13:00 +20°C° 0 mm 1 m/s 769 mmHg 41%
    14:00 +21°C° 0 mm 1 m/s 769 mmHg 39%
    15:00 +19°C° 0 mm 0 m/s 768 mmHg 38%
    16:00 +17°C° 0 mm 0 m/s 768 mmHg 44%
    17:00 +16°C° 0 mm 1 m/s 768 mmHg 50%
    18:00 +14°C° 0 mm 1 m/s 768 mmHg 56%
    19:00 +13°C° 0 mm 1 m/s 769 mmHg 59%
    20:00 +12°C° 0 mm 1 m/s 769 mmHg 62%
    21:00 +11°C° 0 mm 1 m/s 769 mmHg 66%
    22:00 +11°C° 0 mm 1 m/s 769 mmHg 68%
    23:00 +10°C° 0 mm 1 m/s 769 mmHg 70%

    Après-demain, 23 Mars, Samedi

    Heure Température Précipitation Vent Pression Humidité
    00:00 +10°C° 0 mm 1 m/s 769 mmHg 73%
    01:00 +9°C° 0 mm 1 m/s 769 mmHg 75%
    02:00 +9°C° 0 mm 1 m/s 769 mmHg 77%
    03:00 +7°C° 0 mm 0 m/s 769 mmHg 79%
    04:00 +7°C° 0 mm 0 m/s 769 mmHg 80%
    05:00 +8°C° 0 mm 1 m/s 769 mmHg 81%
    06:00 +8°C° 0 mm 1 m/s 769 mmHg 82%
    07:00 +10°C° 0 mm 1 m/s 769 mmHg 75%
    08:00 +12°C° 0 mm 1 m/s 769 mmHg 68%
    09:00 +15°C° 0 mm 1 m/s 769 mmHg 61%
    10:00 +16°C° 0 mm 1 m/s 769 mmHg 55%
    11:00 +19°C° 0 mm 1 m/s 768 mmHg 49%
    12:00 +20°C° 0 mm 2 m/s 768 mmHg 43%
    13:00 +20°C° 0 mm 2 m/s 768 mmHg 41%
    14:00 +20°C° 0 mm 2 m/s 767 mmHg 40%
    15:00 +22°C° 0 mm 1 m/s 767 mmHg 39%
    16:00 +20°C° 0 mm 1 m/s 767 mmHg 46%
    17:00 +17°C° 0 mm 2 m/s 767 mmHg 53%
    18:00 +15°C° 0 mm 2 m/s 767 mmHg 61%
    19:00 +14°C° 0 mm 2 m/s 767 mmHg 67%
    20:00 +13°C° 0 mm 2 m/s 767 mmHg 73%
    21:00 +10°C° 0 mm 2 m/s 768 mmHg 79%
    22:00 +10°C° 0 mm 2 m/s 768 mmHg 83%
    23:00 +10°C° 0 mm 1 m/s 767 mmHg 86%

    24 Mars, Dimanche

    Heure Température Précipitation Vent Pression Humidité
    00:00 +10°C° 0 mm 1 m/s 767 mmHg 89%
    01:00 +9°C° 0 mm 1 m/s 767 mmHg 90%
    02:00 +9°C° 0 mm 1 m/s 767 mmHg 90%
    03:00 +9°C° 0 mm 1 m/s 767 mmHg 91%
    04:00 +8°C° 0 mm 1 m/s 767 mmHg 91%
    05:00 +8°C° 0 mm 1 m/s 767 mmHg 92%
    06:00 +8°C° 0 mm 1 m/s 767 mmHg 92%
    07:00 +10°C° 0 mm 1 m/s 767 mmHg 84%
    08:00 +12°C° 0 mm 2 m/s 768 mmHg 76%
    09:00 +14°C° 0 mm 2 m/s 768 mmHg 69%
    10:00 +15°C° 0 mm 2 m/s 768 mmHg 63%
    11:00 +17°C° 0 mm 2 m/s 768 mmHg 57%
    12:00 +19°C° 0 mm 2 m/s 767 mmHg 51%
    13:00 +19°C° 0 mm 2 m/s 767 mmHg 50%
    14:00 +19°C° 0 mm 3 m/s 767 mmHg 50%
    15:00 +20°C° 0 mm 3 m/s 766 mmHg 50%
    16:00 +18°C° 0 mm 3 m/s 766 mmHg 58%
    17:00 +17°C° 0 mm 3 m/s 767 mmHg 67%
    18:00 +14°C° 0 mm 3 m/s 767 mmHg 75%
    19:00 +13°C° 0 mm 3 m/s 767 mmHg 78%
    20:00 +12°C° 0 mm 3 m/s 767 mmHg 82%
    21:00 +11°C° 0 mm 3 m/s 768 mmHg 86%
    22:00 +11°C° 0 mm 3 m/s 768 mmHg 87%
    23:00 +10°C° 0 mm 3 m/s 768 mmHg 88%

    25 Mars, Lundi

    Heure Température Précipitation Vent Pression Humidité
    00:00 +9°C° 0 mm 3 m/s 768 mmHg 89%
    01:00 +9°C° 0 mm 3 m/s 768 mmHg 90%
    02:00 +9°C° 0 mm 3 m/s 768 mmHg 92%
    03:00 +9°C° 0 mm 3 m/s 768 mmHg 93%
    04:00 +8°C° 0 mm 3 m/s 768 mmHg 93%
    05:00 +8°C° 0 mm 3 m/s 768 mmHg 93%
    06:00 +8°C° 0 mm 3 m/s 768 mmHg 93%
    07:00 +9°C° 0 mm 3 m/s 768 mmHg 85%
    08:00 +11°C° 0 mm 4 m/s 768 mmHg 77%
    09:00 +12°C° 0 mm 4 m/s 769 mmHg 70%
    10:00 +14°C° 0 mm 4 m/s 768 mmHg 65%
    11:00 +15°C° 0 mm 4 m/s 768 mmHg 60%
    12:00 +18°C° 0 mm 4 m/s 768 mmHg 55%
    13:00 +18°C° 0 mm 4 m/s 768 mmHg 53%
    14:00 +18°C° 0 mm 4 m/s 767 mmHg 52%
    15:00 +19°C° 0 mm 4 m/s 767 mmHg 50%
    16:00 +17°C° 0 mm 4 m/s 767 mmHg 54%
    17:00 +15°C° 0 mm 4 m/s 767 mmHg 57%
    18:00 +13°C° 0 mm 4 m/s 767 mmHg 60%
    19:00 +12°C° 0 mm 4 m/s 768 mmHg 61%
    20:00 +11°C° 0 mm 4 m/s 768 mmHg 62%
    21:00 +10°C° 0 mm 4 m/s 769 mmHg 63%
    22:00 +8°C° 0 mm 4 m/s 769 mmHg 64%
    23:00 +7°C° 0 mm 4 m/s 769 mmHg 66%

    26 Mars, Mardi

    Heure Température Précipitation Vent Pression Humidité
    00:00 +8°C° 0 mm 3 m/s 769 mmHg 68%
    01:00 +7°C° 0 mm 3 m/s 768 mmHg 69%
    02:00 +7°C° 0 mm 3 m/s 768 mmHg 70%
    03:00 +5°C° 0 mm 3 m/s 768 mmHg 71%
    04:00 +5°C° 0 mm 3 m/s 768 mmHg 72%
    05:00 +5°C° 0 mm 3 m/s 768 mmHg 72%
    06:00 +5°C° 0 mm 3 m/s 768 mmHg 72%
    07:00 +6°C° 0 mm 4 m/s 768 mmHg 65%
    08:00 +8°C° 0 mm 4 m/s 768 mmHg 59%
    09:00 +11°C° 0 mm 4 m/s 768 mmHg 53%
    10:00 +13°C° 0 mm 4 m/s 768 mmHg 49%
    11:00 +15°C° 0 mm 4 m/s 768 mmHg 45%
    12:00 +18°C° 0 mm 4 m/s 767 mmHg 41%
    13:00 +18°C° 0 mm 4 m/s 767 mmHg 41%
    14:00 +19°C° 0 mm 4 m/s 766 mmHg 41%
    15:00 +19°C° 0 mm 4 m/s 766 mmHg 41%
    16:00 +18°C° 0 mm 4 m/s 766 mmHg 47%
    17:00 +17°C° 0 mm 4 m/s 766 mmHg 53%
    18:00 +14°C° 0 mm 4 m/s 766 mmHg 59%
    19:00 +13°C° 0 mm 4 m/s 766 mmHg 59%
    20:00 +12°C° 0 mm 4 m/s 767 mmHg 58%
    21:00 +12°C° 0 mm 4 m/s 767 mmHg 58%
    22:00 +11°C° 0 mm 4 m/s 767 mmHg 60%
    23:00 +10°C° 0 mm 4 m/s 767 mmHg 62%
    Voir plus